Regional Weather Roundup
Issued by NWS

Home | Current Version | Previous Version | Graphics & Text | Print | Product List | Glossary Off
Versions: 1 2 3 4 5 6 7 8 9 10 11 12 13 14 15 16 17 18 19 20 21 22 23 24 25 26 27 28 29 30 31 32 33 34 35 36 37 38 39 40 41 42 43 44 45 46 47 48 49 50

000
ASUS43 KTOP 211659
RWRKS

WEATHER ROUNDUP FOR KANSAS
NATIONAL WEATHER SERVICE GOODLAND KS
1200 PM CDT SUN SEP 21 2014

NOTE:  "FAIR" INDICATES FEW OR NO CLOUDS BELOW 12,000 FEET WITH NO
SIGNIFICANT WEATHER AND/OR OBSTRUCTIONS TO VISIBILITY.

KSZ001>006-013>018-027>032-041>047-211800-
NORTHWEST KANSAS

CITY           SKY/WX    TMP DP  RH WIND       PRES   REMARKS
GOODLAND       PTSUNNY   67  38  34 E12       30.39S
HAYS           SUNNY     73  46  38 NE10      30.31S
HILL CITY      SUNNY     75  41  29 N8        30.33R
RUSSELL        SUNNY     75  47  36 N9        30.28S
$$

KSZ061>065-074>080-084>089-211800-
SOUTHWEST KANSAS

CITY           SKY/WX    TMP DP  RH WIND       PRES   REMARKS
DODGE CITY     SUNNY     78  36  21 NE17G25   30.30S
ELKHART          N/A     74  48  39 E12         N/A
GARDEN CITY    MOSUNNY   75  40  28 E16       30.32R
GREAT BEND     SUNNY     72  48  43 NE10      30.30R
LIBERAL        SUNNY     79  45  29 E15G21    30.30F
$$

KSZ066>073-081>083-090>101-211800-
SOUTHEAST KANSAS

CITY           SKY/WX    TMP DP  RH WIND       PRES   REMARKS
CHANUTE        SUNNY     77  48  35 N12       30.20R
HUTCHINSON     SUNNY     76  53  44 N8        30.26R
NEWTON         MOSUNNY   73  52  46 NE13G18   30.28R
PARSONS        SUNNY     78  48  34 N9        30.21R
WICHITA INTL   MOSUNNY   81  41  24 NE17      30.23R
WICHITA JABRA  MOSUNNY   79  41  25 NE17      30.23R
WINFIELD       SUNNY     78  46  32 NE14      30.22R
$$

KSZ007>012-019>026-033>040-048>060-102>105-211800-
NORTHEAST KANSAS

CITY           SKY/WX    TMP DP  RH WIND       PRES   REMARKS
CONCORDIA      SUNNY     74  44  34 N13       30.27R
EMPORIA        SUNNY     75  49  39 N12       30.22S
LAWRENCE       SUNNY     74  52  46 NW15G23   30.20S
MANHATTAN      SUNNY     76  43  30 VRB7      30.23S
OLATHE IND     SUNNY     74  51  44 N13       30.20R
OLATHE EXE     SUNNY     74  50  42 N13G23    30.18S
SALINA         SUNNY     75  49  39 N14       30.26S
TOPEKA BILLARD SUNNY     75  50  41 N16       30.21R
TOPEKA FORBES  SUNNY     75  51  43 N15G24    30.21S
$$


USA.gov is the U.S. government's official web portal to all federal, state and local government web resources and services.